Preview of NWS' New Version of Forecast
This preview is not operational and should not be used for support decisions.

Regional Weather Roundup (RWR)

Issued by National Weather Service (NWS)

                            
000
ASUS44 KJAN 170610
RWRMS 

MISSISSIPPI HOURLY WEATHER ROUNDUP
NATIONAL WEATHER SERVICE JACKSON MS
100 AM CDT WED APR 17 2019

NOTE: "FAIR: INDICATES FEW OR NO CLOUDS BELOW 12,000 FEET WITH NO
SIGNIFICANT WEATHER AND/OR OBSTRUCTIONS TO VISIBILITY.

MSZ001>002-007>008-010>013-018>021-025>028-034>036-170700-
NORTHWEST MISSISSIPPI
  
CITY           SKY/WX    TMP DP  RH WIND       PRES   REMARKS
BATESVILLE       N/A     57  55  94 CALM      30.03F                  
CLARKSDALE     CLEAR     63  57  82 SE6       30.01F                  
CLEVELAND      FAIR      64  55  71 S7        30.01S                  
GREENWOOD      FAIR      61  53  75 S6        30.03F                  
6HR MIN TEMP:  58; 6HR MAX TEMP:  74;                                

GREENVILLE     FAIR      62  55  77 S7        30.01F                  
6HR MIN TEMP:  60; 6HR MAX TEMP:  71;                                

OLIVE BRANCH   CLOUDY    61  52  72 S6        30.01F HAZE             
OXFORD         FAIR      61  50  67 CALM      30.06S                  
TUNICA           N/A     59  54  82 SE8       30.01F                  
WINONA         FAIR      61  53  76 CALM      30.05R                  
$$

MSZ003>006-009-014>017-022>024-029>033-037>039-170700-
NORTHEAST MISSISSIPPI
  
CITY           SKY/WX    TMP DP  RH WIND       PRES   REMARKS
ABERDEEN       FAIR      57  57 100 SE6       30.07F                  
COLUMBUS AFB   FAIR      55  51  87 SE8       30.06F                  
6HR MIN TEMP:  55; 6HR MAX TEMP:  70;                                

CORINTH        FAIR      63  50  63 S3        30.05S                  
GOLDN TRIANGLE FAIR      62  52  69 S9        30.07F                  
STARKVILLE     FAIR      55  52  88 CALM      30.08S                  
TUPELO         FAIR      60  50  69 S6        30.05F                  
6HR MIN TEMP:  60; 6HR MAX TEMP:  74;                                

$$

MSZ040-058-170700-
CENTRAL MISSISSIPPI
  
CITY           SKY/WX    TMP DP  RH WIND       PRES   REMARKS
JACKSON INTL   FAIR      62  55  77 S12       30.07F                  
6HR MIN TEMP:  61; 6HR MAX TEMP:  74;                                

JACKSON HAWKNS FAIR      63  57  81 S10       30.07S                  
6HR MIN TEMP:  63; 6HR MAX TEMP:  74;                                

MADISON        FAIR      61  57  88 S6        30.06S                  
MERIDIAN KEY   FAIR      58  54  86 CALM      30.10F                  
6HR MIN TEMP:  57; 6HR MAX TEMP:  74;                                

MERIDIAN NAS   FAIR      61  52  72 S5        30.09F                  
6HR MIN TEMP:  60; 6HR MAX TEMP:  73;                                

RAYMOND        FAIR      63  59  88 S8        30.06F                  
VICKSBURG VKS  PTCLDY    64  55  72 S9        30.05F                  
$$

MSZ059>079-170700-
SOUTH MISSISSIPPI
  
CITY           SKY/WX    TMP DP  RH WIND       PRES   REMARKS
HATTIESBURG    FAIR      60  55  83 CALM      30.11F                  
6HR MIN TEMP:  59; 6HR MAX TEMP:  73;                                

LAUREL         CLEAR     60  56  85 S3        30.10F                  
MCCOMB         FAIR      60  56  86 SE7       30.08F                  
6HR MIN TEMP:  60; 6HR MAX TEMP:  70;                                

NATCHEZ        FAIR      63  58  83 S9        30.06F                  
6HR MIN TEMP:  63; 6HR MAX TEMP:  73;                                

PINE BELT      FAIR      58  55  90 S5        30.11F                  
6HR MIN TEMP:  58; 6HR MAX TEMP:  71;                                

$$

MSZ080>082-170700-
COASTAL MISSISSIPPI
  
CITY           SKY/WX    TMP DP  RH WIND       PRES   REMARKS
BILOXI         FAIR      68  60  74 S9        30.10F                  
6HR MIN TEMP:  67; 6HR MAX TEMP:  70;                                

PASCAGOULA     FAIR      56  53  90 CALM      30.12F                  
6HR MIN TEMP:  55; 6HR MAX TEMP:  70;                                

GULFPORT       FAIR      68  59  73 S8        30.09F                  
6HR MIN TEMP:  66; 6HR MAX TEMP:  70;                                

$$

LAZ007>009-015>016-023>026-170700-
NORTHEAST LOUISIANA
  
CITY           SKY/WX    TMP DP  RH WIND       PRES   REMARKS
BASTROP        FAIR      64  55  72 S5        30.02F                  
TALLULAH/VBURG FAIR      65  56  72 S13       30.04F                  
6HR MIN TEMP:  64; 6HR MAX TEMP:  76;                                

VIDALIA        FAIR      64  59  84 SE7       30.05S                  
$$